Regional Weather Roundup
Issued by NWS

Home | Current Version | Previous Version | Graphics & Text | Print | Product List | Glossary On
Versions: 1 2 3 4 5 6 7 8 9 10 11 12 13 14 15 16 17 18 19 20 21 22 23 24 25 26 27 28 29 30 31 32 33 34 35 36 37 38 39 40 41 42 43 44 45 46 47 48 49 50
000
ASUS43 KFSD 250702
RWRSD

WEATHER ROUNDUP FOR SOUTH DAKOTA
NATIONAL WEATHER SERVICE SIOUX FALLS SD
100 AM CST SUN JAN 25 2015

NOTE: "FAIR" INDICATES FEW OR NO CLOUDS BELOW 12,000 FEET WITH NO
SIGNIFICANT WEATHER AND/OR OBSTRUCTIONS TO VISIBILITY.


SDZ001>005-009-010-012>017-250800-
NORTHWEST AND NORTH CENTRAL SOUTH DAKOTA

CITY           SKY/WX    TMP DP  RH WIND       PRES   REMARKS
BUFFALO          N/A     35  27  72 NW21      29.91S WCI  24
FAITH            N/A     37  30  75 NW17      29.93R
MOBRIDGE       CLOUDY    39  35  86 NW14      29.83R
$$

SDZ012>016-024>037-041>051-057-063-072>074-250800-
SOUTHWEST AND SOUTH CENTRAL SOUTH DAKOTA

CITY           SKY/WX    TMP DP  RH WIND       PRES   REMARKS
RAPID CTY ARPT CLEAR     38  25  59 NW24      29.98S
PIERRE         CLOUDY    39  35  86 NW21G26   29.86R
CUSTER         CLEAR     33  12  41 NW12G29   29.98S WCI  24
PHILIP         MOCLDY    41  30  65 NW21G32   29.95R
PINE RIDGE     CLEAR     29  23  78 SW6       29.99R WCI  23
WINNER         LGT RAIN  38  36  92 NW20      29.86R FOG
$$

SDZ004>011-016>023-039-040-250800-
NORTHEAST SOUTH DAKOTA

CITY           SKY/WX    TMP DP  RH WIND       PRES   REMARKS
ABERDEEN       LGT SNOW  31  28  89 N14       29.83R FOG     WCI  21
WATERTOWN      CLOUDY    32  29  88 N15       29.74R WCI  22
$$

SDZ017-020-022-023-036>040-048>070-250800-
SOUTHEAST SOUTH DAKOTA

CITY           SKY/WX    TMP DP  RH WIND       PRES   REMARKS
SIOUX FALLS    LGT SNOW  33  31  92 N16       29.68R FOG     WCI  23
HURON          CLOUDY    32  30  92 N16       29.80R FOG     WCI  21
MITCHELL       LGT SNOW  33  32  96 N21G29    29.78R FOG     WCI  21
YANKTON        CLOUDY    34  30  86 NW23      29.73R WCI  22
$$

ABBREVIATIONS USED IN REMARKS
   TC - TEMPERATURE IN CELSIUS
  WCI - WIND CHILL INDEX
   HX - HEAT INDEX
  VSB - VISIBILITY



USA.gov is the U.S. government's official web portal to all federal, state and local government web resources and services.